• In Uzbekistan
  • List of Countries
  • For 7 days
  • Water Temperature
  • Satellite Maps
  • Weather Map
  • Weather Widgets
  • user-avatar
    Login

    Hourly Weather Melbourne

    Today, 28 June, Wednesday

    Time Temperature Precipitation Wind Pressure Humidity
    00:00 +7°C° 0 mm 2 mps 766 mmHg 92%
    01:00 +7°C° 0 mm 2 mps 766 mmHg 92%
    02:00 +7°C° 0 mm 2 mps 766 mmHg 91%
    03:00 +8°C° 0 mm 2 mps 766 mmHg 91%
    04:00 +8°C° 0 mm 2 mps 765 mmHg 89%
    05:00 +8°C° 0 mm 2 mps 766 mmHg 89%
    06:00 +8°C° 0 mm 2 mps 766 mmHg 90%
    07:00 +8°C° 0 mm 2 mps 766 mmHg 90%
    08:00 +9°C° 0 mm 2 mps 766 mmHg 86%
    09:00 +10°C° 0 mm 2 mps 766 mmHg 83%
    10:00 +10°C° 0 mm 2 mps 766 mmHg 79%
    11:00 +13°C° 0 mm 2 mps 765 mmHg 74%
    12:00 +14°C° 0 mm 2 mps 765 mmHg 69%
    13:00 +15°C° 0 mm 1 mps 765 mmHg 64%
    14:00 +15°C° 0.1 mm 1 mps 765 mmHg 67%
    15:00 +14°C° 0.1 mm 1 mps 764 mmHg 70%
    16:00 +14°C° 0.1 mm 1 mps 764 mmHg 73%
    17:00 +13°C° 0 mm 1 mps 764 mmHg 79%
    18:00 +10°C° 0 mm 2 mps 765 mmHg 86%
    19:00 +8°C° 0 mm 2 mps 765 mmHg 92%
    20:00 +8°C° 0 mm 2 mps 765 mmHg 92%
    21:00 +8°C° 0 mm 2 mps 765 mmHg 93%
    22:00 +7°C° 0 mm 2 mps 765 mmHg 93%
    23:00 +7°C° 0 mm 2 mps 765 mmHg 94%

    Tomorrow, 29 June, Thursday

    Time Temperature Precipitation Wind Pressure Humidity
    00:00 +7°C° 0 mm 2 mps 765 mmHg 94%
    01:00 +7°C° 0 mm 2 mps 765 mmHg 94%
    02:00 +7°C° 0 mm 2 mps 765 mmHg 94%
    03:00 +7°C° 0 mm 2 mps 765 mmHg 94%
    04:00 +6°C° 0 mm 2 mps 764 mmHg 95%
    05:00 +6°C° 0 mm 2 mps 764 mmHg 95%
    06:00 +6°C° 0 mm 2 mps 764 mmHg 95%
    07:00 +6°C° 0 mm 2 mps 765 mmHg 95%
    08:00 +7°C° 0.1 mm 2 mps 765 mmHg 92%
    09:00 +9°C° 0.1 mm 2 mps 765 mmHg 89%
    10:00 +10°C° 0.1 mm 2 mps 765 mmHg 85%
    11:00 +10°C° 0.1 mm 2 mps 765 mmHg 84%
    12:00 +11°C° 0.1 mm 3 mps 764 mmHg 82%
    13:00 +11°C° 0.1 mm 3 mps 764 mmHg 81%
    14:00 +11°C° 0.1 mm 3 mps 764 mmHg 78%
    15:00 +11°C° 0.1 mm 3 mps 764 mmHg 75%
    16:00 +11°C° 0.1 mm 3 mps 764 mmHg 72%
    17:00 +10°C° 0.4 mm 3 mps 765 mmHg 78%
    18:00 +10°C° 0.4 mm 4 mps 766 mmHg 85%
    19:00 +8°C° 0.4 mm 4 mps 766 mmHg 91%
    20:00 +7°C° 0 mm 4 mps 767 mmHg 89%
    21:00 +7°C° 0 mm 4 mps 768 mmHg 88%
    22:00 +7°C° 0 mm 3 mps 768 mmHg 86%
    23:00 +7°C° 0 mm 3 mps 769 mmHg 85%

    Day after tomorrow, 30 June, Friday

    Time Temperature Precipitation Wind Pressure Humidity
    00:00 +7°C° 0 mm 3 mps 769 mmHg 83%
    01:00 +5°C° 0 mm 3 mps 769 mmHg 82%
    02:00 +5°C° 0 mm 3 mps 770 mmHg 81%
    03:00 +5°C° 0 mm 3 mps 770 mmHg 81%
    04:00 +6°C° 0 mm 2 mps 770 mmHg 80%
    05:00 +6°C° 0 mm 2 mps 771 mmHg 82%
    06:00 +5°C° 0 mm 2 mps 771 mmHg 83%
    07:00 +5°C° 0 mm 2 mps 771 mmHg 85%
    08:00 +6°C° 0 mm 2 mps 772 mmHg 80%
    09:00 +7°C° 0 mm 2 mps 772 mmHg 75%
    10:00 +9°C° 0 mm 2 mps 773 mmHg 71%
    11:00 +9°C° 0 mm 2 mps 772 mmHg 65%
    12:00 +10°C° 0 mm 2 mps 772 mmHg 60%
    13:00 +12°C° 0 mm 2 mps 771 mmHg 55%
    14:00 +12°C° 0 mm 1 mps 771 mmHg 56%
    15:00 +11°C° 0 mm 1 mps 771 mmHg 57%
    16:00 +11°C° 0 mm 1 mps 771 mmHg 58%
    17:00 +9°C° 0 mm 1 mps 772 mmHg 69%
    18:00 +6°C° 0 mm 1 mps 772 mmHg 81%
    19:00 +2°C° 0 mm 0 mps 772 mmHg 92%
    20:00 +3°C° 0 mm 1 mps 772 mmHg 92%
    21:00 +3°C° 0 mm 1 mps 773 mmHg 91%
    22:00 +3°C° 0 mm 1 mps 773 mmHg 91%
    23:00 +3°C° 0 mm 1 mps 772 mmHg 91%

    1 July, Saturday

    Time Temperature Precipitation Wind Pressure Humidity
    00:00 +3°C° 0 mm 1 mps 772 mmHg 91%
    01:00 +4°C° 0 mm 1 mps 772 mmHg 90%
    02:00 +4°C° 0 mm 1 mps 772 mmHg 89%
    03:00 +4°C° 0 mm 1 mps 771 mmHg 88%
    04:00 +3°C° 0 mm 2 mps 771 mmHg 87%
    05:00 +3°C° 0 mm 2 mps 771 mmHg 87%
    06:00 +3°C° 0 mm 2 mps 772 mmHg 86%
    07:00 +2°C° 0 mm 2 mps 772 mmHg 86%
    08:00 +4°C° 0 mm 2 mps 772 mmHg 78%
    09:00 +6°C° 0 mm 2 mps 772 mmHg 71%
    10:00 +7°C° 0 mm 3 mps 772 mmHg 63%
    11:00 +8°C° 0 mm 3 mps 771 mmHg 58%
    12:00 +10°C° 0 mm 3 mps 770 mmHg 53%
    13:00 +11°C° 0 mm 3 mps 770 mmHg 48%
    14:00 +11°C° 0 mm 3 mps 769 mmHg 49%
    15:00 +11°C° 0 mm 3 mps 769 mmHg 50%
    16:00 +11°C° 0 mm 3 mps 768 mmHg 51%
    17:00 +9°C° 0 mm 3 mps 768 mmHg 57%
    18:00 +8°C° 0 mm 3 mps 769 mmHg 64%
    19:00 +5°C° 0 mm 3 mps 769 mmHg 70%
    20:00 +5°C° 0 mm 3 mps 769 mmHg 70%
    21:00 +5°C° 0 mm 3 mps 769 mmHg 70%
    22:00 +4°C° 0 mm 3 mps 769 mmHg 70%
    23:00 +4°C° 0 mm 3 mps 768 mmHg 69%

    2 July, Sunday

    Time Temperature Precipitation Wind Pressure Humidity
    00:00 +4°C° 0 mm 4 mps 768 mmHg 69%
    01:00 +4°C° 0 mm 4 mps 768 mmHg 68%
    02:00 +4°C° 0 mm 4 mps 767 mmHg 67%
    03:00 +4°C° 0 mm 4 mps 767 mmHg 67%
    04:00 +4°C° 0 mm 4 mps 767 mmHg 66%
    05:00 +4°C° 0 mm 4 mps 767 mmHg 65%
    06:00 +4°C° 0 mm 4 mps 767 mmHg 65%
    07:00 +4°C° 0 mm 4 mps 767 mmHg 65%
    08:00 +5°C° 0 mm 4 mps 766 mmHg 60%
    09:00 +7°C° 0 mm 5 mps 766 mmHg 55%
    10:00 +8°C° 0 mm 5 mps 766 mmHg 50%
    11:00 +9°C° 0 mm 5 mps 765 mmHg 47%
    12:00 +10°C° 0 mm 5 mps 764 mmHg 43%
    13:00 +12°C° 0 mm 5 mps 763 mmHg 40%
    14:00 +12°C° 0 mm 5 mps 762 mmHg 42%
    15:00 +12°C° 0 mm 4 mps 761 mmHg 43%
    16:00 +12°C° 0 mm 4 mps 761 mmHg 45%
    17:00 +11°C° 0 mm 4 mps 760 mmHg 51%
    18:00 +10°C° 0 mm 4 mps 760 mmHg 56%
    19:00 +8°C° 0 mm 5 mps 760 mmHg 62%
    20:00 +8°C° 0 mm 5 mps 760 mmHg 63%
    21:00 +8°C° 0 mm 5 mps 759 mmHg 65%
    22:00 +9°C° 0 mm 5 mps 758 mmHg 67%
    23:00 +9°C° 0 mm 5 mps 757 mmHg 68%

    3 July, Monday

    Time Temperature Precipitation Wind Pressure Humidity
    00:00 +9°C° 0 mm 5 mps 756 mmHg 70%
    01:00 +10°C° 0 mm 5 mps 755 mmHg 72%
    02:00 +10°C° 0.2 mm 5 mps 755 mmHg 77%
    03:00 +10°C° 0.2 mm 5 mps 754 mmHg 83%
    04:00 +10°C° 0.2 mm 5 mps 753 mmHg 89%
    05:00 +9°C° 0.2 mm 5 mps 753 mmHg 88%
    06:00 +9°C° 0.2 mm 6 mps 753 mmHg 87%
    07:00 +8°C° 0.2 mm 6 mps 753 mmHg 85%
    08:00 +9°C° 0.1 mm 6 mps 753 mmHg 82%
    09:00 +9°C° 0.1 mm 6 mps 753 mmHg 78%
    10:00 +9°C° 0.1 mm 6 mps 753 mmHg 74%
    11:00 +9°C° 0.1 mm 6 mps 753 mmHg 73%
    12:00 +9°C° 0.1 mm 6 mps 752 mmHg 72%
    13:00 +9°C° 0.1 mm 6 mps 752 mmHg 71%
    14:00 +9°C° 0 mm 5 mps 752 mmHg 69%
    15:00 +9°C° 0 mm 5 mps 752 mmHg 67%
    16:00 +10°C° 0 mm 5 mps 752 mmHg 65%
    17:00 +10°C° 0.6 mm 4 mps 752 mmHg 73%
    18:00 +8°C° 0.6 mm 4 mps 752 mmHg 81%
    19:00 +8°C° 0.6 mm 3 mps 752 mmHg 89%
    20:00 +8°C° 1.7 mm 2 mps 752 mmHg 91%
    21:00 +8°C° 1.7 mm 2 mps 752 mmHg 93%
    22:00 +8°C° 1.7 mm 1 mps 753 mmHg 96%
    23:00 +7°C° 0 mm 2 mps 753 mmHg 95%
    Show more